Cloud_Cover
5 0 2 5 0 0 0 0 0 0 0 0 0 0 0 0 0 0 0 0 0 0 0 0 0 0 0 0 0 0 0 0 0 0 0 0 0 1 10 5 5 17 81
5 46 8 0 0 0 0 0 0 0 0 0 0 4 0 0 0 0 0 0 0 2 0 0 0 0 0 0 0 0 0 0 0 0 0 0 0 0 1 49 49 5 54
7 7 5 30 1 0 0 0 0 0 0 5 5 5 4 0 0 1 26 85 63 5 5 0 0 0 0 0 0 0 0 0 0 0 0 0 0 0 0 0 7 1 5
4 4 14 22 0 0 0 0 0 0 5 5 5 65 5 1 20 100 100 66 5 48 2 0 0 0 0 0 0 0 0 0 0 0 0 0 0 0 0 0 0 0 2
5 5 3 0 0 0 0 0 3 5 82 98 82 60 5 5 5 38 17 0 0 0 1 0 0 0 0 0 0 0 0 0 0 0 0 0 0 0 0 0 0 0 0
33 50 2 5 2 0 0 5 4 77 100 100 98 6 1 5 47 11 0 0 0 0 0 0 0 0 0 0 0 0 5 0 0 0 0 0 0 0 0 0 0 0 0
58 5 22 5 5 44 28 5 9 52 100 99 12 42 8 98 70 0 1 0 0 0 0 0 0 0 0 2 3 9 0 1 4 0 0 0 0 0 0 0 0 0 0
64 95 100 12 49 100 100 96 100 81 20 6 5 33 0 5 5 4 3 0 0 0 0 0 0 0 0 0 0 8 14 4 3 0 0 0 0 0 0 0 0 0 0
100 100 76 100 100 100 100 93 99 21 3 0 0 5 4 0 4 4 0 0 0 0 0 0 0 0 0 0 0 0 10 2 0 0 0 0 0 0 0 0 0 0 0
98 100 100 100 100 100 100 100 100 100 94 93 89 63 82 5 4 0 0 0 0 0 0 0 0 0 0 0 0 0 0 0 0 9 0 0 0 0 0 0 0 0 0
100 100 100 100 100 100 100 86 100 100 100 65 40 36 19 4 0 0 0 0 0 0 0 0 2 0 0 0 0 0 0 0 0 0 0 0 0 0 0 0 0 0 5
100 100 100 100 100 100 100 100 100 100 86 2 5 5 5 4 4 0 1 0 0 0 0 0 5 4 0 0 0 0 0 0 0 0 2 0 0 0 0 0 0 0 0
100 99 100 100 100 81 54 13 89 14 5 4 66 69 20 9 9 6 7 0 2 0 0 0 5 5 3 0 0 0 0 0 0 0 5 4 0 0 0 0 0 0 0
100 100 100 94 99 92 100 70 5 5 5 8 68 77 52 28 36 72 15 7 16 17 23 6 5 5 0 0 0 0 0 0 0 0 5 5 0 0 0 0 0 0 4
70 100 100 77 30 14 75 4 0 0 5 43 86 100 59 78 19 100 74 16 5 14 18 20 5 5 3 0 4 0 0 0 0 0 5 5 22 5 0 0 0 0 0
73 88 49 4 5 5 5 2 0 0 3 44 100 100 90 44 6 86 98 95 96 51 13 36 65 5 4 1 5 0 0 0 0 0 5 36 56 76 3 0 0 0 0
22 36 5 5 0 3 5 1 0 0 5 5 14 100 87 92 2 99 100 100 100 100 100 100 56 13 2 5 4 0 0 0 0 0 5 40 89 72 5 1 3 2 24
97 18 12 5 2 4 0 0 1 2 8 18 19 85 16 61 4 76 100 100 100 100 100 100 76 8 5 2 0 0 0 0 1 2 2 63 56 100 9 5 4 15 100
79 42 21 4 2 2 2 0 4 3 18 5 4 49 93 95 5 5 35 100 100 100 100 100 22 5 1 4 11 12 6 5 12 13 0 78 41 100 35 9 5 4 73
3 0 2 2 4 5 0 1 1 0 0 0 3 91 66 14 53 95 97 100 100 92 100 25 2 13 17 34 67 82 31 15 65 63 3 98 34 100 88 72 5 0 76
0 0 82 78 4 0 0 0 3 0 20 26 99 93 5 50 100 33 49 45 100 42 32 54 21 39 97 100 100 66 15 14 14 10 26 4 38 100 93 100 100 5 4
38 83 5 4 0 0 0 0 0 4 72 96 100 74 67 90 40 5 6 95 62 29 80 52 29 86 100 98 60 34 92 7 15 20 39 33 19 100 94 90 99 5 5
83 14 4 0 0 0 0 0 32 16 59 58 96 100 39 5 5 19 100 15 5 50 58 21 24 70 91 56 80 52 79 11 6 17 38 61 100 66 82 43 78 33 1
74 5 0 0 0 0 0 0 0 16 36 13 99 33 31 5 58 100 6 1 21 61 44 29 84 88 18 63 83 100 97 54 5 2 100 100 100 100 91 70 72 33 2
3 0 0 0 8 8 0 0 0 0 4 17 17 32 12 30 100 84 3 1 2 58 0 46 80 29 23 98 100 86 86 20 12 8 100 100 100 100 100 67 66 14 0
64 99 76 57 72 1 0 0 0 0 3 10 15 12 29 15 3 0 0 0 64 2 0 28 2 5 39 99 100 74 5 16 6 100 100 100 100 100 99 100 83 34 5